• In Czech Republic
  • List of Countries
  • For 7 days
  • Water Temperature
  • Satellite Maps
  • Weather Map
  • Weather Widgets
  • user-avatar
    Login

    Hourly Weather Uige

    Today, 22 June, Friday

    Time Temperature Precipitation Wind Pressure Humidity
    00:00 +21°C° 0 mm 1 mps 694 mmHg 77%
    01:00 +17°C° 0 mm 0 mps 694 mmHg 86%
    02:00 +18°C° 0 mm 1 mps 693 mmHg 88%
    03:00 +18°C° 0 mm 1 mps 693 mmHg 91%
    04:00 +18°C° 0 mm 1 mps 693 mmHg 94%
    05:00 +18°C° 0 mm 1 mps 693 mmHg 93%
    06:00 +18°C° 0 mm 1 mps 694 mmHg 92%
    07:00 +19°C° 0 mm 1 mps 694 mmHg 88%
    08:00 +23°C° 0 mm 1 mps 695 mmHg 74%
    09:00 +26°C° 0 mm 1 mps 695 mmHg 60%
    10:00 +29°C° 0 mm 1 mps 696 mmHg 45%
    11:00 +31°C° 0 mm 1 mps 695 mmHg 40%
    12:00 +33°C° 0 mm 1 mps 695 mmHg 34%
    13:00 +35°C° 0 mm 1 mps 695 mmHg 28%
    14:00 +34°C° 0 mm 1 mps 694 mmHg 31%
    15:00 +32°C° 0 mm 1 mps 693 mmHg 34%
    16:00 +30°C° 0 mm 1 mps 692 mmHg 37%
    17:00 +29°C° 0 mm 1 mps 692 mmHg 43%
    18:00 +27°C° 0 mm 1 mps 692 mmHg 49%
    19:00 +25°C° 0 mm 1 mps 692 mmHg 54%
    20:00 +24°C° 0 mm 1 mps 692 mmHg 60%
    21:00 +23°C° 0 mm 1 mps 693 mmHg 66%
    22:00 +22°C° 0 mm 1 mps 693 mmHg 72%
    23:00 +21°C° 0 mm 1 mps 693 mmHg 77%

    Tomorrow, 23 June, Saturday

    Time Temperature Precipitation Wind Pressure Humidity
    00:00 +20°C° 0 mm 1 mps 693 mmHg 81%
    01:00 +20°C° 0 mm 1 mps 693 mmHg 86%
    02:00 +19°C° 0 mm 1 mps 693 mmHg 89%
    03:00 +19°C° 0 mm 1 mps 692 mmHg 91%
    04:00 +19°C° 0 mm 1 mps 692 mmHg 93%
    05:00 +19°C° 0 mm 1 mps 692 mmHg 91%
    06:00 +19°C° 0 mm 1 mps 693 mmHg 89%
    07:00 +20°C° 0 mm 1 mps 693 mmHg 87%
    08:00 +23°C° 0 mm 1 mps 693 mmHg 71%
    09:00 +26°C° 0 mm 1 mps 694 mmHg 55%
    10:00 +30°C° 0 mm 2 mps 694 mmHg 38%
    11:00 +32°C° 0 mm 1 mps 694 mmHg 34%
    12:00 +33°C° 0 mm 1 mps 694 mmHg 30%
    13:00 +35°C° 0 mm 1 mps 693 mmHg 25%
    14:00 +34°C° 0 mm 1 mps 692 mmHg 27%
    15:00 +33°C° 0 mm 1 mps 692 mmHg 29%
    16:00 +32°C° 0 mm 1 mps 691 mmHg 31%
    17:00 +30°C° 0 mm 1 mps 691 mmHg 35%
    18:00 +29°C° 0 mm 1 mps 691 mmHg 39%
    19:00 +27°C° 0 mm 1 mps 691 mmHg 42%
    20:00 +26°C° 0 mm 1 mps 692 mmHg 49%
    21:00 +24°C° 0 mm 1 mps 692 mmHg 56%
    22:00 +22°C° 0 mm 1 mps 692 mmHg 63%
    23:00 +22°C° 0 mm 1 mps 692 mmHg 68%

    Day after tomorrow, 24 June, Sunday

    Time Temperature Precipitation Wind Pressure Humidity
    00:00 +21°C° 0 mm 1 mps 692 mmHg 74%
    01:00 +20°C° 0 mm 1 mps 692 mmHg 80%
    02:00 +19°C° 0 mm 1 mps 691 mmHg 84%
    03:00 +19°C° 0 mm 1 mps 691 mmHg 88%
    04:00 +18°C° 0 mm 1 mps 691 mmHg 92%
    05:00 +19°C° 0 mm 1 mps 691 mmHg 92%
    06:00 +19°C° 0 mm 1 mps 692 mmHg 91%
    07:00 +19°C° 0 mm 1 mps 692 mmHg 90%
    08:00 +23°C° 0 mm 1 mps 693 mmHg 75%
    09:00 +26°C° 0 mm 1 mps 694 mmHg 59%
    10:00 +29°C° 0 mm 1 mps 694 mmHg 43%
    11:00 +31°C° 0 mm 1 mps 694 mmHg 38%
    12:00 +33°C° 0 mm 1 mps 694 mmHg 32%
    13:00 +36°C° 0 mm 1 mps 693 mmHg 26%
    14:00 +34°C° 0 mm 1 mps 692 mmHg 27%
    15:00 +33°C° 0 mm 1 mps 691 mmHg 29%
    16:00 +32°C° 0 mm 1 mps 691 mmHg 30%
    17:00 +30°C° 0 mm 1 mps 691 mmHg 36%
    18:00 +28°C° 0 mm 1 mps 691 mmHg 41%
    19:00 +26°C° 0 mm 1 mps 691 mmHg 46%
    20:00 +25°C° 0 mm 1 mps 692 mmHg 53%
    21:00 +24°C° 0 mm 1 mps 692 mmHg 60%
    22:00 +22°C° 0 mm 1 mps 692 mmHg 67%
    23:00 +21°C° 0 mm 1 mps 692 mmHg 74%

    25 June, Monday

    Time Temperature Precipitation Wind Pressure Humidity
    00:00 +21°C° 0 mm 1 mps 692 mmHg 80%
    01:00 +20°C° 0 mm 1 mps 692 mmHg 86%
    02:00 +19°C° 0 mm 1 mps 692 mmHg 89%
    03:00 +19°C° 0 mm 1 mps 691 mmHg 92%
    04:00 +19°C° 0 mm 1 mps 691 mmHg 95%
    05:00 +19°C° 0 mm 1 mps 691 mmHg 93%
    06:00 +19°C° 0 mm 1 mps 692 mmHg 92%
    07:00 +19°C° 0 mm 1 mps 692 mmHg 91%
    08:00 +23°C° 0 mm 1 mps 693 mmHg 76%
    09:00 +26°C° 0 mm 1 mps 693 mmHg 61%
    10:00 +29°C° 0 mm 1 mps 694 mmHg 46%
    11:00 +31°C° 0 mm 1 mps 693 mmHg 40%
    12:00 +33°C° 0 mm 1 mps 693 mmHg 35%
    13:00 +35°C° 0 mm 1 mps 692 mmHg 29%
    14:00 +34°C° 0 mm 1 mps 692 mmHg 30%
    15:00 +33°C° 0 mm 1 mps 691 mmHg 31%
    16:00 +32°C° 0 mm 1 mps 691 mmHg 33%
    17:00 +30°C° 0 mm 1 mps 691 mmHg 37%
    18:00 +29°C° 0 mm 1 mps 691 mmHg 42%
    19:00 +27°C° 0 mm 1 mps 691 mmHg 47%
    20:00 +25°C° 0 mm 1 mps 692 mmHg 52%
    21:00 +24°C° 0 mm 1 mps 692 mmHg 58%
    22:00 +23°C° 0 mm 1 mps 692 mmHg 63%
    23:00 +22°C° 0 mm 1 mps 692 mmHg 68%

    26 June, Tuesday

    Time Temperature Precipitation Wind Pressure Humidity
    00:00 +21°C° 0 mm 1 mps 692 mmHg 74%
    01:00 +20°C° 0 mm 1 mps 691 mmHg 79%
    02:00 +20°C° 0 mm 1 mps 691 mmHg 83%
    03:00 +19°C° 0 mm 1 mps 691 mmHg 87%
    04:00 +19°C° 0 mm 1 mps 691 mmHg 92%
    05:00 +19°C° 0 mm 1 mps 691 mmHg 91%
    06:00 +19°C° 0 mm 1 mps 691 mmHg 91%
    07:00 +19°C° 0 mm 1 mps 692 mmHg 90%
    08:00 +22°C° 0 mm 1 mps 692 mmHg 76%
    09:00 +26°C° 0 mm 1 mps 693 mmHg 61%
    10:00 +29°C° 0 mm 1 mps 694 mmHg 47%
    11:00 +31°C° 0 mm 1 mps 693 mmHg 41%
    12:00 +33°C° 0 mm 1 mps 693 mmHg 36%
    13:00 +34°C° 0 mm 1 mps 692 mmHg 30%
    14:00 +34°C° 0 mm 1 mps 692 mmHg 32%
    15:00 +34°C° 0 mm 2 mps 691 mmHg 33%
    16:00 +32°C° 0 mm 2 mps 690 mmHg 34%
    17:00 +30°C° 0 mm 2 mps 691 mmHg 38%
    18:00 +29°C° 0 mm 1 mps 691 mmHg 43%
    19:00 +27°C° 0 mm 1 mps 691 mmHg 47%
    20:00 +26°C° 0 mm 1 mps 692 mmHg 53%
    21:00 +24°C° 0 mm 1 mps 692 mmHg 59%
    22:00 +22°C° 0 mm 1 mps 692 mmHg 66%
    23:00 +22°C° 0 mm 1 mps 692 mmHg 72%

    27 June, Wednesday

    Time Temperature Precipitation Wind Pressure Humidity
    00:00 +21°C° 0 mm 1 mps 692 mmHg 78%
    01:00 +20°C° 0 mm 1 mps 692 mmHg 84%
    02:00 +20°C° 0 mm 1 mps 691 mmHg 87%
    03:00 +19°C° 0 mm 1 mps 691 mmHg 90%
    04:00 +19°C° 0 mm 1 mps 691 mmHg 92%
    05:00 +19°C° 0 mm 1 mps 691 mmHg 91%
    06:00 +19°C° 0 mm 1 mps 692 mmHg 90%
    07:00 +19°C° 0 mm 1 mps 692 mmHg 89%
    08:00 +22°C° 0 mm 1 mps 693 mmHg 74%
    09:00 +25°C° 0 mm 1 mps 693 mmHg 59%
    10:00 +28°C° 0 mm 2 mps 693 mmHg 43%
    11:00 +30°C° 0 mm 2 mps 693 mmHg 37%
    12:00 +32°C° 0 mm 2 mps 692 mmHg 31%
    13:00 +35°C° 0 mm 2 mps 692 mmHg 25%
    14:00 +35°C° 0 mm 2 mps 691 mmHg 27%
    15:00 +33°C° 0 mm 1 mps 690 mmHg 29%
    16:00 +32°C° 0 mm 1 mps 690 mmHg 30%
    17:00 +30°C° 0 mm 1 mps 690 mmHg 34%
    18:00 +29°C° 0 mm 1 mps 691 mmHg 37%
    19:00 +27°C° 0 mm 1 mps 691 mmHg 41%
    20:00 +26°C° 0 mm 1 mps 691 mmHg 48%
    21:00 +24°C° 0 mm 1 mps 691 mmHg 55%
    22:00 +23°C° 0 mm 1 mps 692 mmHg 63%
    23:00 +22°C° 0 mm 1 mps 691 mmHg 71%
    Show more